This demonstration page uses our WeatherBlox Daily Observations layout. Learn more.

39.92423, -83.80882

Hourly Observations for May 28, 2015

Temp ( °F °C ) Dew Point ( °F °C ) Humidity (%) Winds ( mph kmh ) Pressure ( in mb ) Visibility ( mi km ) Precip ( " mm )
12:56 am 00:56 Partly Cloudy 68 20 62 16.6 81 81 SW 12 19 30.14 1021 7 11.26538 0 0
1:56 am 01:56 Partly Cloudy 67 19.4 62 16.6 84 84 WSW 7 11 30.15 1021 7 11.26538 0 0
2:56 am 02:56 Clear 65 18.3 63 17.2 93 93 WSW 8 13 30.15 1021 7 11.26538 0 0
3:56 am 03:56 Mostly Cloudy with Mist and Fog 65 18.3 63 17.2 93 93 Calm 30.16 1021 6 9.65604 0 0
4:31 am 04:31 Partly Cloudy with Mist and Fog 64 18 63 17 94 94 WSW 3 6 30.18 1022 6 9.65604 0 0
4:56 am 04:56 Clear with Mist and Fog 64 17.7 63 17.2 97 97 S 3 6 30.16 1021 6 9.65604 0 0
5:41 am 05:41 Mostly Cloudy with Mist and Fog 63 17 63 17 100 100 S 3 6 30.18 1022 6 9.65604 0 0
5:56 am 05:56 Cloudy with Mist and Fog 63 17.2 63 17.2 100 100 S 5 7 30.17 1022 6 9.65604 0 0
6:11 am 06:11 Cloudy with Mist and Fog 64 18 63 17 94 94 SSW 3 6 30.21 1023 5 8.0467 0 0
6:56 am 06:56 Mostly Cloudy with Mist and Fog 64 17.7 64 17.7 100 100 SW 3 6 30.2 1023 4 6.43736 0 0
7:56 am 07:56 Mostly Cloudy with Mist and Fog 65 18.3 64 17.7 96 96 Calm 30.21 1023 4 6.43736 0 0
8:56 am 08:56 Partly Cloudy with Mist and Fog 69 20.5 65 18.3 87 87 ENE 3 6 30.22 1023 4 6.43736 0 0
9:56 am 09:56 Mostly Cloudy with Haze 71 21.6 66 18.8 84 84 ESE 8 13 30.22 1024 4 6.43736 0 0
10:44 am 10:44 Hazy 73 23 66 19 78 78 ESE 7 11 30.21 1023 4 6.43736 0 0
10:56 am 10:56 Hazy 74 23.3 66 18.8 76 76 E 9 15 30.23 1024 4 6.43736 0 0
11:24 am 11:24 Mostly Cloudy with Haze 75 24 66 19 74 74 SSE 8 13 30.24 1024 4 6.43736 0 0
11:56 am 11:56 Hazy 78 25.5 66 18.8 67 67 ESE 8 13 30.23 1024 5 8.0467 0 0
12:56 pm 12:56 Mostly Sunny 80 26.6 66 18.8 62 62 ESE 9 15 30.22 1024 9 14.48406 0.02 0.508
1:56 pm 13:56 Sunny 82 27.7 63 17.2 53 53 VRB 7 11 30.21 1023 10 16.0934 0 0
2:56 pm 14:56 Partly Cloudy 83 28.3 63 17.2 51 51 ESE 8 13 30.19 1022 10 16.0934 0 0
3:56 pm 15:56 Sunny 84 28.8 64 17.7 51 51 E 8 13 30.17 1022 10 16.0934 0 0
4:56 pm 16:56 Sunny 85 29.4 63 17.2 48 48 SE 8 13 30.16 1022 10 16.0934 0 0
5:56 pm 17:56 Partly Cloudy 85 29.4 62 16.6 46 46 S 9 15 30.16 1021 9 14.48406 0 0
6:56 pm 18:56 Mostly Sunny 83 28.3 63 17.2 51 51 S 8 13 30.15 1021 9 14.48406 0 0
7:56 pm 19:56 Sunny 80 26.6 62 16.6 54 54 SSE 7 11 30.15 1021 10 16.0934 0 0
8:56 pm 20:56 Mostly Clear 76 24.4 63 17.2 64 64 SSE 5 7 30.16 1021 10 16.0934 0 0
9:56 pm 21:56 Clear 72 22.2 62 16.6 71 71 SE 6 9 30.18 1022 10 16.0934 0 0
10:56 pm 22:56 Clear 73 22.7 63 17.2 71 71 SSE 5 7 30.19 1022 10 16.0934 0 0
11:56 pm 23:56 Clear 69 20.5 63 17.2 81 81 SSE 7 11 30.18 1022 10 16.0934 0 0

Powered by AerisWeather